Theta_e
285 284 284 283 283 282 282 282 282 282 281 280 280 279 278 277 277 276 275 275 275 275 275 275 275 275 275 275 275 275 275 275 275 275 275 275 275 275 276 276 276 276
285 284 284 283 283 282 282 281 281 281 281 280 280 279 278 277 276 276 275 275 275 275 275 275 275 275 275 275 275 275 275 275 275 275 275 275 275 275 275 275 276 276
285 284 284 283 282 282 282 281 281 280 280 280 279 278 278 277 276 275 275 275 274 274 274 274 274 274 274 274 274 274 274 274 275 275 275 275 275 275 275 275 275 275
286 285 284 283 283 282 281 281 281 280 280 279 278 277 277 276 275 275 274 274 274 274 274 274 274 274 274 274 274 274 274 274 274 274 274 274 275 275 275 275 275 275
287 286 285 284 283 282 281 281 280 280 279 279 278 277 276 276 275 275 274 274 274 274 274 274 274 274 273 273 273 274 274 274 274 274 274 274 274 274 274 275 275 275
287 287 286 284 283 282 281 281 280 279 279 278 278 277 276 275 275 274 274 274 274 273 273 273 273 273 273 273 273 273 273 274 274 274 274 274 274 274 274 274 274 274
287 286 286 285 283 282 281 280 280 279 278 278 277 276 275 275 275 274 273 273 273 273 273 273 273 273 273 273 273 273 273 273 274 274 274 274 274 274 274 274 274 274
287 286 286 285 284 282 281 280 279 279 278 278 277 276 275 275 274 274 273 273 273 273 273 273 273 273 273 273 273 273 273 273 273 273 273 273 273 273 273 274 274 274
287 286 286 285 284 283 281 280 279 278 278 277 276 275 275 274 274 274 273 273 272 272 272 272 272 272 272 273 273 273 273 273 273 273 273 273 273 273 273 273 273 273
287 286 286 285 284 283 281 280 279 279 278 276 276 275 275 274 274 273 273 272 272 272 272 272 272 272 272 272 272 272 273 273 273 273 273 273 273 273 273 273 273 273
286 286 286 285 284 283 282 280 279 279 278 276 275 275 274 274 273 273 272 272 272 272 272 272 272 272 272 272 272 272 272 273 272 272 272 272 272 272 272 272 273 273
286 286 285 285 284 283 282 281 279 279 277 276 275 275 274 273 273 272 272 272 272 272 272 272 272 272 272 272 272 272 272 272 272 272 272 271 271 272 272 272 272 273
286 286 285 285 284 283 282 281 279 278 277 276 275 274 274 273 273 272 272 272 272 271 271 271 271 271 271 271 271 272 272 271 271 271 271 271 271 271 271 271 272 272
285 286 285 285 284 283 282 281 279 278 277 276 275 274 274 273 272 272 272 272 271 271 271 271 271 271 271 271 271 271 271 271 271 271 271 270 270 270 270 270 271 271
285 285 285 284 283 282 281 280 279 278 277 276 275 274 273 273 272 272 272 271 271 271 271 271 271 271 271 271 271 270 270 270 270 270 270 270 270 270 270 270 270 270
285 285 284 284 283 282 281 280 279 278 276 275 275 274 273 272 272 272 271 271 271 271 271 271 270 270 270 270 270 270 270 270 270 270 270 269 269 269 269 270 270 270
284 284 283 283 282 281 280 279 278 277 276 275 274 274 273 272 272 271 271 271 271 271 271 270 270 270 270 270 271 271 270 270 269 269 269 269 269 269 269 269 269 270
282 282 282 281 281 281 280 279 278 277 275 275 274 273 273 272 271 271 271 271 270 270 270 270 270 270 270 271 271 272 271 270 269 268 268 268 268 268 269 269 269 269
280 279 279 280 280 279 278 277 277 276 275 274 274 273 273 272 271 271 270 270 270 270 270 270 269 270 270 271 271 272 272 271 269 268 268 268 268 268 268 268 269 269
276 275 275 276 276 276 276 276 276 275 275 274 274 273 272 272 271 271 270 270 270 270 269 269 269 269 270 271 271 272 272 272 270 268 268 268 268 268 268 268 268 269
273 273 273 273 273 274 275 275 275 275 274 274 273 273 272 272 271 270 270 270 269 269 269 269 269 269 270 271 271 272 272 272 271 270 269 268 268 268 268 268 268 268
271 271 271 272 272 273 273 274 274 274 273 273 273 273 272 271 271 270 270 269 269 269 269 268 268 269 270 270 271 271 271 271 271 271 270 270 269 269 269 269 269 269
270 270 270 270 271 271 272 272 272 272 272 273 273 273 272 271 270 270 270 269 269 268 268 268 268 268 269 270 270 271 271 271 270 270 270 270 270 269 269 269 269 269
268 268 268 268 269 269 270 270 271 271 272 272 273 272 271 271 270 270 269 269 269 268 268 268 267 267 268 269 270 271 271 270 270 270 269 269 269 269 270 270 270 270
266 266 266 267 267 268 269 269 270 270 271 272 272 272 271 270 270 269 269 269 268 268 267 267 267 267 268 269 269 270 271 270 270 269 269 269 269 269 270 270 270 270
265 265 265 265 266 267 267 268 269 270 271 272 272 271 270 270 269 269 269 268 268 267 267 267 267 266 266 268 269 269 270 270 269 269 269 269 269 269 270 270 270 270
Wind_Speed
21 21 22 23 23 24 25 26 26 27 26 24 23 22 22 23 23 24 25 25 24 24 24 24 24 23 23 22 22 21 20 19 19 18 18 19 19 19 19 18 18 16
22 22 23 23 23 24 25 26 27 27 27 26 25 22 21 21 22 25 25 24 24 24 25 24 24 23 23 22 22 22 20 20 20 19 19 20 19 19 19 19 19 18
23 23 23 24 24 26 26 26 26 27 27 27 25 23 21 20 22 24 24 24 24 24 25 25 24 24 24 23 22 22 21 20 20 20 19 20 20 19 19 19 19 19
26 25 24 25 25 26 26 26 26 26 26 27 26 23 22 22 22 24 24 24 24 24 24 25 25 24 24 24 23 22 22 21 21 20 20 20 20 20 19 18 18 19
30 29 28 26 25 26 26 25 26 27 27 27 26 24 24 26 26 26 25 24 24 24 24 24 25 25 24 24 24 23 22 21 21 21 21 20 20 20 19 19 19 19
33 33 31 29 26 25 25 26 26 27 27 27 26 25 26 27 29 28 26 24 24 24 24 24 25 25 25 24 24 24 23 22 22 22 22 21 20 20 20 19 19 20
36 34 33 30 28 26 25 25 26 26 26 26 26 27 27 28 30 30 27 25 25 24 24 24 25 25 25 24 24 24 24 23 23 23 23 22 21 20 20 20 20 20
37 35 33 31 31 28 24 24 25 25 26 25 26 28 30 31 31 31 28 26 25 25 24 24 25 25 25 24 24 24 24 24 23 24 24 23 22 21 22 21 20 21
36 35 34 33 32 29 25 24 24 24 24 24 26 29 32 32 32 32 30 27 25 25 25 24 24 25 25 25 25 25 24 24 24 24 24 24 23 22 22 21 21 21
38 36 34 32 32 30 27 24 23 23 23 24 27 30 32 32 31 31 29 27 25 25 25 25 25 25 25 25 25 24 25 24 24 23 23 23 23 22 22 22 22 23
38 37 35 32 31 30 28 25 24 24 23 25 28 31 32 32 31 30 28 26 26 25 25 25 25 25 25 25 25 24 24 24 23 22 22 22 22 21 21 22 23 25
38 36 34 33 32 31 29 28 25 24 22 24 29 32 32 32 32 31 29 27 26 25 25 25 25 25 25 24 24 24 24 24 24 24 23 22 22 23 23 23 24 25
37 34 32 31 30 29 29 30 28 24 22 24 28 30 32 32 32 32 31 30 28 26 25 25 25 24 24 24 24 24 24 25 26 26 25 24 25 25 24 24 24 23
36 34 32 29 27 28 30 31 29 25 22 22 25 28 31 33 32 32 32 29 27 26 25 25 24 24 24 24 24 25 24 25 26 26 26 25 24 24 24 25 24 22
35 32 31 29 27 29 29 28 28 26 22 21 24 28 31 32 32 33 32 29 25 24 24 24 24 24 25 24 24 25 25 26 26 26 25 24 23 22 22 23 23 21
34 32 33 30 27 27 26 25 27 25 21 22 26 29 30 31 31 31 33 32 28 26 25 24 25 25 25 25 26 26 25 25 25 24 24 23 22 21 20 20 21 22
33 32 32 28 27 30 29 27 27 24 21 24 27 28 29 30 30 31 32 32 31 30 27 25 26 26 26 26 27 26 26 27 25 22 21 21 20 19 19 20 20 21
33 33 32 30 33 34 29 25 26 25 24 26 27 28 29 29 30 32 33 32 31 31 30 28 28 28 26 26 26 26 27 27 23 19 18 18 18 19 19 19 20 21
34 35 34 34 34 32 26 26 28 28 28 28 28 30 30 29 31 32 33 33 32 31 31 31 30 28 25 25 26 26 27 26 23 20 20 20 20 19 18 18 18 19
35 37 38 38 38 36 34 33 33 31 30 30 30 30 30 30 32 32 33 33 32 32 32 30 29 27 25 25 25 25 26 27 25 24 25 26 24 22 20 20 19 18
37 38 41 42 42 41 39 37 35 33 34 34 33 32 31 32 33 33 33 33 34 34 31 27 26 26 24 24 25 24 25 26 25 23 24 26 27 26 25 24 23 21
37 36 38 40 41 41 40 39 38 38 39 38 36 34 31 29 28 27 28 31 33 33 29 24 24 25 24 24 25 24 24 23 21 21 22 22 23 26 28 27 25 25
38 39 40 41 42 43 42 40 40 40 40 36 33 32 27 23 22 20 21 23 26 29 28 23 22 23 24 24 24 24 24 21 18 18 19 19 19 21 24 25 26 27
42 41 42 42 43 43 41 40 39 37 35 31 29 30 28 25 23 19 18 18 19 24 28 24 20 21 23 24 24 24 24 21 18 17 17 18 19 20 22 22 23 25
41 40 39 38 40 40 38 38 36 34 32 29 26 27 25 23 21 17 16 17 16 20 24 22 19 18 20 23 24 24 22 20 18 16 16 17 19 20 21 22 22 23
38 38 39 38 39 39 38 36 34 33 32 27 23 22 18 16 17 15 15 15 13 16 19 20 19 18 19 21 23 23 22 20 18 17 17 18 19 19 19 20 22 22
Wind_Direction
285 280 278 276 274 271 266 263 260 258 255 246 237 230 222 216 211 208 209 212 214 216 215 215 215 215 215 215 215 216 216 215 215 216 216 219 222 225 227 229 230 232
291 286 280 276 274 274 270 265 261 258 256 251 244 237 227 217 210 209 211 210 211 214 214 214 215 215 215 214 214 214 215 216 216 215 216 218 220 223 226 227 227 229
298 295 290 283 277 276 275 272 267 261 257 253 246 237 227 218 211 211 211 208 209 212 211 212 214 214 214 214 213 215 215 216 215 215 216 217 219 222 223 225 226 226
307 303 298 294 289 285 280 276 272 266 260 253 244 234 225 220 216 213 211 209 210 211 211 212 213 213 213 213 214 216 216 216 216 214 215 217 217 220 221 222 223 224
314 310 305 299 296 294 289 280 273 268 262 253 244 235 228 226 226 221 214 210 210 211 211 213 213 213 212 212 213 215 216 217 216 213 213 215 215 216 219 220 222 222
317 313 309 305 298 294 291 285 278 271 264 254 248 242 232 230 231 226 216 209 209 211 211 212 214 215 213 212 212 214 215 215 214 212 212 213 214 214 216 219 221 222
316 311 308 307 304 297 290 285 280 274 267 258 251 244 236 233 234 229 220 211 209 210 211 212 214 215 215 214 214 214 213 214 213 211 212 212 212 213 214 216 219 221
315 312 308 305 305 301 294 289 280 274 270 260 250 243 240 238 237 233 225 214 210 211 211 213 215 216 216 216 216 215 213 214 213 211 211 211 211 212 213 214 216 218
313 311 308 306 305 300 296 294 287 278 270 257 248 245 244 242 238 235 227 214 210 212 211 214 216 216 217 217 217 217 215 215 214 211 211 210 209 211 212 212 213 217
310 309 307 305 305 303 299 299 298 289 274 259 255 251 247 244 239 233 226 214 211 212 210 213 216 216 218 218 218 218 217 216 215 212 212 210 209 210 210 213 215 219
309 306 305 303 304 305 303 303 306 301 281 264 265 260 250 246 239 231 222 212 211 213 211 212 215 216 218 219 218 218 217 217 216 215 214 212 213 213 213 215 219 221
307 303 300 300 301 301 301 301 306 307 289 267 268 267 255 246 240 231 223 216 213 213 213 213 214 215 218 219 219 218 217 217 219 219 218 217 219 219 219 220 222 222
304 299 296 297 299 298 297 296 300 305 295 272 267 268 258 247 241 233 227 222 217 213 213 213 213 214 217 219 219 219 217 218 220 221 222 223 223 223 222 222 223 222
302 300 299 299 298 297 297 296 296 299 296 276 264 265 259 250 242 234 228 222 215 213 213 212 212 213 214 217 219 219 218 219 221 222 223 223 223 223 223 222 223 223
305 305 307 303 296 297 301 300 297 297 296 281 267 266 263 253 243 235 229 221 213 211 212 212 212 212 212 214 217 218 220 221 222 222 222 221 221 222 222 220 221 223
308 308 307 301 296 300 302 298 298 298 294 284 276 271 265 254 243 235 229 224 218 214 212 211 212 212 213 216 219 219 219 219 219 219 219 220 220 220 220 220 220 222
313 313 312 309 306 304 299 295 298 298 293 290 284 275 265 254 242 234 230 226 221 219 215 211 211 213 215 219 222 221 218 215 214 215 215 217 218 217 219 222 223 223
322 321 319 314 307 303 300 301 303 300 296 295 288 276 267 254 242 235 231 226 222 220 217 214 215 216 217 221 223 223 218 211 206 205 208 212 217 220 221 222 224 224
329 328 325 321 317 313 312 311 307 301 296 295 290 280 269 255 243 236 231 226 222 219 218 219 220 219 219 223 223 223 220 212 203 201 207 213 216 218 219 219 221 223
335 333 328 325 322 317 312 308 304 300 297 294 287 278 268 254 243 236 230 226 223 221 221 221 222 221 222 225 223 221 220 217 211 207 210 215 215 212 213 214 217 221
331 327 322 319 316 312 308 303 301 299 298 294 285 275 267 256 245 236 230 227 224 223 223 223 223 222 222 224 223 220 221 222 221 216 215 216 216 215 216 216 214 218
325 322 318 314 311 308 304 300 298 298 297 293 285 275 265 251 239 232 227 226 225 223 222 222 223 222 221 222 221 221 224 225 223 221 220 220 219 218 218 217 215 217
320 317 313 310 307 304 301 298 298 297 296 292 283 273 260 238 226 223 220 219 221 220 218 219 222 223 221 221 222 223 225 223 220 222 225 227 227 224 220 216 215 219
314 312 310 307 304 303 301 299 298 297 296 293 281 272 262 241 229 224 217 213 213 216 218 219 223 225 222 222 225 225 222 219 217 221 226 229 231 231 228 222 219 222
312 311 308 305 303 303 301 300 300 298 298 295 280 270 263 245 231 223 217 214 212 214 217 218 222 225 221 220 224 225 222 219 216 217 223 227 227 228 228 226 226 226
312 310 308 306 304 302 301 302 301 299 301 296 278 268 260 239 224 219 216 212 207 210 214 215 220 224 220 220 224 225 223 221 216 217 222 225 224 223 223 224 224 226